When you browse on this site, cookies collect data to enhance your experience and personalize the content and advertising you see.
Visit our Privacy Policy to learn more. By continuing to use the site, you agree to this use of cookies and data.
  • In Hungary
  • List of Countries
  • For 7 days
  • Water Temperature
  • Weather Map
  • News
  • Weather Widgets
  • user-avatar
    Login

    Hourly Weather Luzhicy

    Today, 24 October, Thursday

    Time Temperature Precipitation Wind Pressure Humidity
    00:00 +9°C° 0 mm 1 mps 749 mmHg 85%
    01:00 +9°C° 0 mm 1 mps 749 mmHg 86%
    02:00 +9°C° 0 mm 1 mps 749 mmHg 87%
    03:00 +9°C° 0 mm 1 mps 749 mmHg 89%
    04:00 +7°C° 0 mm 2 mps 748 mmHg 91%
    05:00 +7°C° 0 mm 2 mps 748 mmHg 93%
    06:00 +7°C° 0 mm 1 mps 748 mmHg 93%
    07:00 +7°C° 0 mm 1 mps 749 mmHg 94%
    08:00 +7°C° 0 mm 1 mps 749 mmHg 94%
    09:00 +8°C° 0 mm 1 mps 749 mmHg 89%
    10:00 +9°C° 0 mm 1 mps 749 mmHg 84%
    11:00 +9°C° 0 mm 2 mps 749 mmHg 79%
    12:00 +9°C° 0 mm 2 mps 749 mmHg 79%
    13:00 +9°C° 0 mm 2 mps 749 mmHg 79%
    14:00 +8°C° 0 mm 2 mps 749 mmHg 79%
    15:00 +8°C° 0 mm 2 mps 749 mmHg 82%
    16:00 +8°C° 0 mm 1 mps 749 mmHg 85%
    17:00 +7°C° 0 mm 1 mps 749 mmHg 88%
    18:00 +7°C° 0 mm 1 mps 749 mmHg 90%
    19:00 +6°C° 0 mm 1 mps 749 mmHg 92%
    20:00 +6°C° 0 mm 1 mps 749 mmHg 94%
    21:00 +6°C° 0 mm 1 mps 749 mmHg 95%
    22:00 +6°C° 0 mm 1 mps 749 mmHg 95%
    23:00 +6°C° 0 mm 1 mps 749 mmHg 95%

    Tomorrow, 25 October, Friday

    Time Temperature Precipitation Wind Pressure Humidity
    00:00 +6°C° 0 mm 1 mps 749 mmHg 95%
    01:00 +5°C° 0 mm 2 mps 749 mmHg 95%
    02:00 +5°C° 0 mm 2 mps 749 mmHg 96%
    03:00 +5°C° 0 mm 2 mps 748 mmHg 95%
    04:00 +5°C° 0 mm 2 mps 748 mmHg 95%
    05:00 +5°C° 0 mm 2 mps 748 mmHg 94%
    06:00 +5°C° 0 mm 2 mps 747 mmHg 92%
    07:00 +5°C° 0 mm 3 mps 747 mmHg 91%
    08:00 +5°C° 0 mm 3 mps 747 mmHg 89%
    09:00 +8°C° 0 mm 3 mps 747 mmHg 85%
    10:00 +8°C° 0 mm 4 mps 746 mmHg 80%
    11:00 +11°C° 0 mm 4 mps 746 mmHg 75%
    12:00 +12°C° 0 mm 4 mps 745 mmHg 75%
    13:00 +12°C° 0 mm 5 mps 745 mmHg 75%
    14:00 +13°C° 0 mm 5 mps 744 mmHg 74%
    15:00 +13°C° 0 mm 5 mps 744 mmHg 78%
    16:00 +12°C° 0 mm 4 mps 743 mmHg 82%
    17:00 +12°C° 0 mm 4 mps 743 mmHg 86%
    18:00 +12°C° 0 mm 4 mps 743 mmHg 87%
    19:00 +12°C° 0 mm 4 mps 743 mmHg 88%
    20:00 +12°C° 0 mm 4 mps 744 mmHg 89%
    21:00 +12°C° 0 mm 4 mps 744 mmHg 89%
    22:00 +12°C° 0 mm 4 mps 744 mmHg 90%
    23:00 +12°C° 0 mm 4 mps 744 mmHg 90%

    Day after tomorrow, 26 October, Saturday

    Time Temperature Precipitation Wind Pressure Humidity
    00:00 +11°C° 0 mm 4 mps 744 mmHg 87%
    01:00 +11°C° 0 mm 4 mps 745 mmHg 83%
    02:00 +11°C° 0 mm 4 mps 745 mmHg 80%
    03:00 +10°C° 0 mm 4 mps 745 mmHg 83%
    04:00 +10°C° 0 mm 4 mps 745 mmHg 86%
    05:00 +8°C° 0 mm 4 mps 745 mmHg 89%
    06:00 +8°C° 0 mm 4 mps 745 mmHg 88%
    07:00 +8°C° 0 mm 4 mps 745 mmHg 86%
    08:00 +8°C° 0 mm 4 mps 745 mmHg 85%
    09:00 +9°C° 0 mm 5 mps 745 mmHg 81%
    10:00 +9°C° 0 mm 5 mps 745 mmHg 77%
    11:00 +10°C° 0 mm 5 mps 745 mmHg 72%
    12:00 +10°C° 0 mm 5 mps 745 mmHg 72%
    13:00 +12°C° 0 mm 5 mps 744 mmHg 72%
    14:00 +12°C° 0 mm 5 mps 744 mmHg 71%
    15:00 +12°C° 0 mm 5 mps 743 mmHg 71%
    16:00 +11°C° 0 mm 6 mps 742 mmHg 71%
    17:00 +10°C° 0 mm 6 mps 742 mmHg 71%
    18:00 +11°C° 0 mm 6 mps 741 mmHg 72%
    19:00 +11°C° 0 mm 6 mps 741 mmHg 73%
    20:00 +11°C° 0 mm 6 mps 741 mmHg 74%
    21:00 +11°C° 0 mm 6 mps 740 mmHg 75%
    22:00 +11°C° 0 mm 6 mps 740 mmHg 76%
    23:00 +11°C° 0 mm 6 mps 740 mmHg 77%

    , 27 October, Sunday

    Time Temperature Precipitation Wind Pressure Humidity
    00:00 +11°C° 0 mm 6 mps 740 mmHg 77%
    01:00 +11°C° 0 mm 6 mps 740 mmHg 78%
    02:00 +11°C° 0 mm 6 mps 740 mmHg 79%
    03:00 +11°C° 0 mm 6 mps 740 mmHg 79%
    04:00 +12°C° 0 mm 5 mps 740 mmHg 80%
    05:00 +10°C° 0 mm 5 mps 739 mmHg 80%
    06:00 +10°C° 0 mm 5 mps 739 mmHg 80%
    07:00 +10°C° 0 mm 5 mps 739 mmHg 80%
    08:00 +10°C° 0 mm 5 mps 739 mmHg 80%
    09:00 +10°C° 0.1 mm 5 mps 739 mmHg 79%
    10:00 +12°C° 0.1 mm 5 mps 738 mmHg 79%
    11:00 +12°C° 0.1 mm 5 mps 738 mmHg 78%
    12:00 +12°C° 0 mm 5 mps 738 mmHg 75%
    13:00 +13°C° 0 mm 5 mps 737 mmHg 72%
    14:00 +13°C° 0 mm 5 mps 737 mmHg 69%
    15:00 +13°C° 0 mm 5 mps 737 mmHg 71%
    16:00 +13°C° 0 mm 5 mps 736 mmHg 73%
    17:00 +13°C° 0 mm 6 mps 736 mmHg 76%
    18:00 +13°C° 0 mm 6 mps 736 mmHg 76%
    19:00 +13°C° 0 mm 6 mps 736 mmHg 75%
    20:00 +12°C° 0 mm 7 mps 736 mmHg 75%
    21:00 +11°C° 0 mm 7 mps 736 mmHg 73%
    22:00 +9°C° 0 mm 6 mps 736 mmHg 71%
    23:00 +8°C° 0 mm 6 mps 736 mmHg 69%

    27 October, Sunday

    Time Temperature Precipitation Wind Pressure Humidity
    00:00 +11°C° 0 mm 6 mps 740 mmHg 77%
    01:00 +11°C° 0 mm 6 mps 740 mmHg 78%
    02:00 +11°C° 0 mm 6 mps 740 mmHg 79%
    03:00 +11°C° 0 mm 6 mps 740 mmHg 79%
    04:00 +12°C° 0 mm 5 mps 740 mmHg 80%
    05:00 +10°C° 0 mm 5 mps 739 mmHg 80%
    06:00 +10°C° 0 mm 5 mps 739 mmHg 80%
    07:00 +10°C° 0 mm 5 mps 739 mmHg 80%
    08:00 +10°C° 0 mm 5 mps 739 mmHg 80%
    09:00 +10°C° 0.1 mm 5 mps 739 mmHg 79%
    10:00 +12°C° 0.1 mm 5 mps 738 mmHg 79%
    11:00 +12°C° 0.1 mm 5 mps 738 mmHg 78%
    12:00 +12°C° 0 mm 5 mps 738 mmHg 75%
    13:00 +13°C° 0 mm 5 mps 737 mmHg 72%
    14:00 +13°C° 0 mm 5 mps 737 mmHg 69%
    15:00 +13°C° 0 mm 5 mps 737 mmHg 71%
    16:00 +13°C° 0 mm 5 mps 736 mmHg 73%
    17:00 +13°C° 0 mm 6 mps 736 mmHg 76%
    18:00 +13°C° 0 mm 6 mps 736 mmHg 76%
    19:00 +13°C° 0 mm 6 mps 736 mmHg 75%
    20:00 +12°C° 0 mm 7 mps 736 mmHg 75%
    21:00 +11°C° 0 mm 7 mps 736 mmHg 73%
    22:00 +9°C° 0 mm 6 mps 736 mmHg 71%
    23:00 +8°C° 0 mm 6 mps 736 mmHg 69%

    28 October, Monday

    Time Temperature Precipitation Wind Pressure Humidity
    00:00 +8°C° 0 mm 6 mps 736 mmHg 70%
    01:00 +7°C° 0 mm 6 mps 736 mmHg 70%
    02:00 +6°C° 0 mm 5 mps 736 mmHg 71%
    03:00 +6°C° 0 mm 5 mps 736 mmHg 71%
    04:00 +6°C° 0 mm 5 mps 737 mmHg 71%
    05:00 +6°C° 0 mm 5 mps 737 mmHg 72%
    06:00 +6°C° 0.3 mm 5 mps 737 mmHg 74%
    07:00 +5°C° 0.3 mm 5 mps 737 mmHg 77%
    08:00 +5°C° 0.3 mm 5 mps 737 mmHg 80%
    09:00 +5°C° 0.1 mm 5 mps 738 mmHg 77%
    10:00 +5°C° 0.1 mm 5 mps 738 mmHg 74%
    11:00 +5°C° 0.1 mm 5 mps 739 mmHg 71%
    12:00 +5°C° 0.1 mm 5 mps 739 mmHg 69%
    13:00 +5°C° 0.1 mm 5 mps 740 mmHg 67%
    14:00 +5°C° 0.1 mm 5 mps 740 mmHg 65%
    15:00 +4°C° 0 mm 4 mps 741 mmHg 68%
    16:00 +3°C° 0 mm 3 mps 741 mmHg 72%
    17:00 +3°C° 0 mm 2 mps 741 mmHg 75%
    18:00 +3°C° 0 mm 2 mps 742 mmHg 77%
    19:00 +3°C° 0 mm 1 mps 742 mmHg 79%
    20:00 +2°C° 0 mm 1 mps 743 mmHg 82%
    21:00 +2°C° 0 mm 1 mps 743 mmHg 82%
    22:00 +1°C° 0 mm 0 mps 744 mmHg 83%
    23:00 0°C° 0 mm 0 mps 744 mmHg 83%

    29 October, Tuesday

    Time Temperature Precipitation Wind Pressure Humidity
    00:00 0°C° 0 mm 0 mps 744 mmHg 84%
    01:00 0°C° 0 mm 0 mps 745 mmHg 85%
    02:00 0°C° 0 mm 0 mps 745 mmHg 86%
    03:00 0°C° 0 mm 0 mps 745 mmHg 86%
    04:00 -1°C° 0 mm 0 mps 745 mmHg 87%
    05:00 0°C° 0 mm 1 mps 745 mmHg 87%
    06:00 0°C° 0 mm 1 mps 746 mmHg 87%
    07:00 +1°C° 0 mm 1 mps 746 mmHg 88%
    08:00 +1°C° 0 mm 1 mps 746 mmHg 88%
    09:00 +1°C° 0 mm 2 mps 747 mmHg 83%
    10:00 +2°C° 0 mm 2 mps 747 mmHg 79%
    11:00 +3°C° 0 mm 2 mps 747 mmHg 74%
    12:00 +3°C° 0 mm 2 mps 747 mmHg 73%
    13:00 +4°C° 0 mm 2 mps 748 mmHg 71%
    14:00 +3°C° 0 mm 3 mps 748 mmHg 70%
    15:00 +2°C° 0 mm 3 mps 748 mmHg 72%
    16:00 +1°C° 0 mm 3 mps 748 mmHg 74%
    17:00 0°C° 0 mm 3 mps 748 mmHg 75%
    18:00 0°C° 0 mm 3 mps 749 mmHg 76%
    19:00 0°C° 0 mm 3 mps 749 mmHg 76%
    20:00 -1°C° 0 mm 3 mps 750 mmHg 77%
    21:00 -1°C° 0 mm 3 mps 750 mmHg 77%
    22:00 -1°C° 0 mm 3 mps 751 mmHg 78%
    23:00 -2°C° 0 mm 3 mps 751 mmHg 79%
    Show more